Regional Weather Roundup
Issued by NWS

Home | Current Version | Previous Version | Text Only | Print | Product List | Glossary On
Versions: 1 2 3 4 5 6 7 8 9 10 11 12 13 14 15 16 17 18 19 20 21 22 23 24 25 26 27 28 29 30 31 32 33 34 35 36 37 38 39 40 41 42 43 44 45 46 47 48 49 50
554
ASUS43 KDMX 300903
RWRIA

WEATHER ROUNDUP FOR IOWA
NATIONAL WEATHER SERVICE DES MOINES IA
400 AM CDT FRI SEP 30 2016

NOTE: "FAIR" INDICATES FEW OR NO CLOUDS BELOW 12,000 FEET WITH NO
SIGNIFICANT WEATHER AND/OR OBSTRUCTIONS TO VISIBILITY.

* - THESE STATIONS ARE NOT NWS STATIONS...THUS NOT UNDER NWS
QUALITY CONTROL.  THEY ALSO DO NOT REPORT WEATHER SUCH
AS PRECIPITATION OR FOG.

IAZ001>003-012>014-020>022-031>034-043>046-301000-
   NORTHWEST IOWA

CITY           SKY/WX    TMP DP  RH WIND       PRES   REMARKS
CARROLL *      CLEAR     46  46 100 NW3       30.31F
CHEROKEE *     CLEAR     43  43 100 CALM      30.33F
DENISON *      CLEAR     43  43 100 CALM      30.30F
LE MARS *      CLEAR     46  45  93 CALM      30.35S
SHELDON *      CLEAR     43  43 100 CALM      30.33S
SIOUX CITY     CLEAR     47  45  93 N5        30.33F
SPENCER        CLEAR     41  41 100 N3        30.34F
STORM LAKE *   CLEAR     46  45  93 N6        30.33F
$$

IAZ055>058-069>071-079>083-090>094-301000-
   SOUTHWEST IOWA

CITY           SKY/WX    TMP DP  RH WIND       PRES   REMARKS
ATLANTIC *     CLEAR     46  45  93 N6        30.30F
AUDUBON *      CLEAR     45  41  87 CALM      30.32S
CLARINDA *       N/A     46  46 100 MISG      30.30S FOG
COUNCIL BLFS * CLEAR     48  46  93 N7        30.30F
CRESTON *      CLEAR     52  48  87 NE9       30.29F
HARLAN  *      CLEAR     46  46 100 N5        30.34F
LAMONI         CLEAR     51  48  89 N6        30.27F
RED OAK *      CLEAR     46  45  93 CALM      30.29F
SHENANDOAH *   CLEAR     45  43  93 CALM      30.30S
$$

IAZ047>049-059>061-072>074-084-301000-
   CENTRAL IOWA

CITY           SKY/WX    TMP DP  RH WIND       PRES   REMARKS
AMES           CLEAR     49  49 100 N6        30.29F
ANKENY *         N/A    N/A N/A N/A MISG        N/A
BOONE *        CLEAR     50  48  93 N8        30.29F FOG
CHARITON *       N/A     50  48  93 NW7       30.26F
DES MOINES     CLEAR     54  49  83 CALM      30.28F
GRINNELL*      CLEAR     50  47  92 NW6       30.27S
KNOXVILLE *    CLEAR     55  50  82 N7        30.25F
MARSHALLTOWN   CLEAR     52  49  89 N9        30.28S
NEWTON *       CLEAR     52  48  87 N9        30.27S
PELLA *        CLEAR     51  49  93 N3        30.27F
PERRY *          N/A     47  46  99 N5        30.30F
$$

IAZ004>006-015-016-023>025-035-036-301000-
   NORTH CENTRAL IOWA

CITY           SKY/WX    TMP DP  RH WIND       PRES   REMARKS
ALGONA *       CLEAR     45  45 100 CALM      30.33F
CLARION *      CLEAR     48  48 100 NE5       30.32F
ESTHERVILLE    CLEAR     42  42 100 NW5       30.34F
FORT DODGE *   CLEAR     48  43  81 CALM      30.33S
MASON CITY     CLEAR     46  44  93 N5        30.35F
FOREST CITY *    N/A     46  45  93 CALM      30.34S
WEBSTER CITY * CLEAR     45  45 100 N6        30.30F
IOWA FALLS *     N/A     49  46  90 NW3       30.32S
$$

IAZ007>011-017>019-026>030-037>042-050>054-066-301000-
   NORTHEAST IOWA

CITY           SKY/WX    TMP DP  RH WIND       PRES   REMARKS
CEDAR RAPIDS   CLEAR     52  50  93 N10       30.24F
CHARLES CITY *   N/A     52  50  93 N6        30.32F
CLINTON *      CLOUDY    57  54  89 N9        30.22S
DECORAH *      PTCLDY    54  52  94 VRB7      30.31S
DUBUQUE        CLEAR     54  50  86 NE10      30.24F
MONTICELLO *   CLEAR     52  48  87 CALM      30.25S
OELWEIN *      CLEAR     52  48  87 NE9       30.30S
WATERLOO       CLEAR     51  47  86 N6        30.28F
$$

IAZ064-065-067-068-078-301000-
   EAST CENTRAL IOWA

CITY           SKY/WX    TMP DP  RH WIND       PRES   REMARKS
DAVENPORT      CLOUDY    56  53  90 N10       30.23R
IOWA CITY      CLEAR     56  48  74 N9        30.25S
MUSCATINE *    CLEAR     55  50  82 CALM      30.22F
QUAD CITIES    CLOUDY    60  53  77 NE12      30.22R
$$

IAZ062-063-075>077-085>089-095>099-301000-
   SOUTHEAST IOWA

CITY           SKY/WX    TMP DP  RH WIND       PRES   REMARKS
BURLINGTON     CLEAR     56  53  90 N10       30.19F
FAIRFIELD *    CLEAR     52  46  82 N7        30.23R
FORT MADISON * CLEAR     55  52  88 N5        30.20F
KEOKUK *       PTCLDY    57  52  82 N8        30.19F
OSKALOOSA *      N/A     51  48  91 N8        30.25S
OTTUMWA        CLEAR     51  47  86 N8        30.24F
WASHINGTON *     N/A    N/A N/A N/A MISG        N/A
$$

ABBREVIATIONS USED IN REMARKS
   TC - TEMPERATURES IN CELSIUS
  WCI - WIND CHILL INDEX
   HX - HEAT INDEX
  VSB - VISIBILITY
$$





USA.gov is the U.S. government's official web portal to all federal, state and local government web resources and services.